SES-15 (WAAS/PRN 133)

Last updated on Sat Sep 05 2026 00:03:32 GMT+0000 (Coordinated Universal Time)

1 42709U 17026A 26247.57034507 .00000053 00000+0 00000+0 0 9996 2 42709 0.0361 311.5802 0000370 247.2236 221.0362 1.00269030 8229
UTC large
Height (km)
Speed (km/s)
/
Latitude / Longitude
Inclination (degrees)
Orbital Period (minutes)
Azimuth
Elevation
Range (km)
Doppler Factor

Next 0 passes for location: London (51.5072 / 0.1276)

No passes found over London.
SES-15 (WAAS/PRN 133)